Location: Givhans Ferry State Park
(33.0284°N, 80.3868°W)
Time: 06:24:11
(UTC-04:00)

Daily predictions for brighter satellites

Satellite Brightness Start Highest point End
(mag) Time Altitude Azimuth Time Altitude Azimuth Time Altitude Azimuth
Cosmos 405 Rocket 2.7 20:45:44 10° S 20:49:24 57° E 20:53:09 10° NNE
COSMOS 2455 3.4 20:47:33 10° NNW 20:53:28 61° WSW 20:59:21 10° S
SL-27 R/B 2.5 20:50:45 10° S 20:54:21 62° ESE 20:57:57 10° NNE
Cosmos 1441 Rocket 3.9 20:52:20 10° SSE 20:55:40 32° E 20:59:01 10° NNE
Tiangong 2 3.9 20:58:31 10° WNW 21:00:47 18° NNW 21:03:04 10° NNE
Cosmos 1680 Rocket 3.7 20:57:14 10° SSW 21:02:27 80° WNW 21:07:40 10° NNE
Meteor 1-19 Rocket 4.3 20:58:01 10° S 21:03:49 77° E 21:09:33 10° NNE
H-2A R/B 4.4 12:55:25 10° SW 21:04:42 70° SSW 21:12:02 11° ESE
Aureole 1 Rocket 2.3 21:01:36 10° SSW 21:05:01 85° W 21:08:02 10° NNE
Helios 1B rocket 2.7 21:01:12 10° NNE 21:05:12 47° E 21:09:10 10° S
Cosmos 1346 2.9 21:03:06 10° S 21:05:50 81° W 21:08:36 10° N
USA 81 4.1 21:03:06 10° S 21:08:23 85° W 21:13:41 10° N
Envisat 3.3 21:04:10 10° SSE 21:09:03 50° ENE 21:13:56 10° N
Cosmos 2082 Rocket 3.4 21:09:47 10° SSE 21:13:50 20° E 21:17:52 10° NE
SAR-Lupe-4 4.4 21:11:24 13° SE 21:14:14 34° ENE 21:17:31 10° N
ASTRO E2 3.7 21:11:13 10° W 21:14:51 34° SSW 21:17:42 15° SE
DNEPR-1 R/B 3.7 21:12:11 10° NNW 21:16:29 64° ENE 21:20:36 14° SE
COSMOS 2406 4.5 21:11:47 10° SW 21:17:16 46° WNW 21:22:46 10° N
Okean 1-7 Rocket 3.7 21:16:27 10° S 21:20:46 53° E 21:25:10 10° NNE
YAOGAN 6 3.8 21:19:55 17° ESE 21:21:44 25° ENE 21:24:40 10° NNE
Okean 2 4.0 21:20:12 12° SSE 21:23:36 35° E 21:27:20 10° NNE
Cosmos 1743 3.0 21:21:30 10° NNW 21:25:23 70° W 21:29:16 10° S
Cosmos 2327 Rocket 4.5 21:21:07 10° N 21:27:21 74° E 21:33:40 10° SSE
Cosmos 1025 Rocket 3.0 21:24:41 10° S 21:28:52 58° E 21:33:03 10° NNE
CZ-4B DEB 2.8 21:28:47 22° SE 21:30:25 51° ENE 21:33:21 10° N
SAR-Lupe-1 4.4 21:28:11 19° SE 21:30:27 47° ENE 21:33:55 10° N
USA 186 3.6 21:35:52 10° SSW 21:38:41 28° W 21:41:26 10° NW
COSMOS 2487 3.1 21:37:47 25° SE 21:39:05 34° ESE 21:42:22 10° NE
Cosmos 405 3.0 21:36:13 10° N 21:39:44 64° E 21:41:35 25° SSE
Cosmos 1666 3.0 21:39:02 10° NNW 21:42:45 63° W 21:45:58 13° S
ERS-1 Rocket 3.4 21:41:26 23° SE 21:44:12 43° ENE 21:48:57 10° N
CENTAUR R/B 3.7 21:36:44 10° NW 21:44:38 56° WSW 21:52:35 11° S
SJ-11-01 4.3 21:40:57 14° S 21:44:54 84° WSW 21:49:38 10° NNW
Cosmos 1833 Rocket 3.2 21:42:26 15° SSE 21:46:39 38° ESE 21:51:47 10° NE
Meteor 2-9 Rocket 4.2 21:42:00 10° N 21:47:34 89° ENE 21:52:21 15° S
Cosmos 1238 Rocket 4.3 21:41:38 10° S 21:48:22 77° W 21:54:52 10° N
CRYOSAT 2 4.3 21:45:52 19° SSE 21:49:16 69° E 21:54:05 10° N
Cosmos 1371 Rocket 4.0 21:45:55 10° NNW 21:51:12 69° ENE 21:54:08 26° SSE
OAO 2 Rocket 3.2 21:46:47 10° WNW 21:51:44 84° NNE 21:54:39 25° E
Cosmos 2058 Rocket 4.0 21:53:52 10° NNE 21:57:46 30° E 21:58:30 28° E
Cosmos 2181 Rocket 4.1 21:58:24 20° SSE 22:02:48 60° E 22:08:58 10° NNE
ASTEX 1 3.5 22:00:40 19° S 22:04:11 77° W 22:09:06 10° N
Cosmos 1939 Rocket 3.8 22:01:45 17° SSW 22:04:26 41° W 22:08:07 10° NNW
Cosmos 1437 Rocket 2.6 22:04:20 10° N 22:08:13 85° E 22:09:19 46° SSE
Intercosmos 24 3.7 22:06:40 10° N 22:10:13 74° W 22:11:24 40° S
Cosmos 1515 3.6 22:09:19 37° S 22:10:45 86° W 22:14:34 10° N
H-2A R/B 4.5 22:11:41 11° ENE 22:11:47 11° ENE 22:12:56 10° NE
PSLV R/B 3.3 22:14:12 10° WNW 22:16:58 67° WNW 22:16:58 67° WNW
Hubble Space Telescope 2.0 22:14:36 10° SW 22:17:02 27° SSW 22:17:02 27° SSW
ARGOS 3.3 22:20:51 42° SE 22:22:27 59° ENE 22:27:46 10° N
Meteor 2-19 Rocket 4.4 22:17:27 10° N 22:23:37 89° E 22:26:33 33° S
Cosmos 1980 Rocket 3.9 22:20:46 10° NNE 22:24:38 19° ENE 22:25:49 17° ENE
Cosmos 962 Rocket 4.4 22:19:14 10° N 22:25:28 89° E 22:28:18 34° S
Cosmos 1624 Rocket 4.5 22:28:31 10° NNW 22:33:41 56° WSW 22:35:41 35° SSW
Cosmos 2228 2.9 22:31:34 10° N 22:35:49 73° ENE 22:35:49 73° ENE
Cosmos 921 Rocket 3.0 22:32:08 10° NNW 22:36:35 77° WSW 22:37:02 68° SSW
MetOp-B 4.2 22:36:14 44° S 22:37:56 76° WSW 22:43:18 10° NNW
NOAA 11 4.3 22:35:58 39° S 22:37:58 68° WSW 22:43:23 10° NNW
Tiangong 2 3.9 22:36:27 10° NNW 22:38:20 15° N 22:39:22 13° NNE
H-2A R/B 2.2 22:38:01 48° E 22:38:21 49° ENE 22:43:12 10° N
SL-8 Rocket 3.9 22:36:18 10° N 22:42:35 73° E 22:44:12 51° SSE
Cosmos 2366 rocket 4.0 22:43:24 10° N 22:49:28 59° E 22:50:17 55° ESE
Terra 2.8 22:55:30 34° NE 22:55:30 34° NE 22:59:14 10° N
Cosmos 1602 Rocket 3.8 22:57:24 62° N 22:57:24 62° N 23:01:02 10° N
Cosmos 2082 Rocket 3.2 22:52:07 10° SW 22:57:30 44° WNW 23:02:54 10° N
Meteor 1-4 Rocket 4.0 22:56:10 10° N 22:58:16 33° N 22:58:16 33° N
Cosmos 1269 Rocket 3.8 23:01:07 84° ESE 23:01:09 84° ESE 23:06:28 10° NNE
Cosmos 2278 4.1 22:58:45 10° NNW 23:04:15 52° WSW 23:05:10 47° SW
SPOT 5 3.4 23:07:20 43° W 23:07:20 43° W 23:11:21 10° NNW
Cosmos 1048 Rocket 3.9 23:08:12 78° W 23:08:17 79° WNW 23:13:28 10° NNE
Cosmos 1420 Rocket 4.1 23:04:06 10° NNW 23:08:59 68° NE 23:08:59 68° NE
Cosmos 1959 Rocket 4.5 23:04:25 10° N 23:10:47 79° W 23:11:51 63° SSW
DMSP B5D2-2 4.0 23:06:32 10° N 23:11:50 83° WNW 23:11:57 82° WSW
Meteor 2-14 Rocket 4.3 23:09:32 10° N 23:15:37 75° E 23:15:45 75° E
Cosmos 1656 3.9 23:13:01 10° NNW 23:18:22 56° WSW 23:18:29 56° WSW
Meteor 1-22 Rocket 4.1 23:14:10 10° N 23:19:20 81° NW 23:19:20 81° NW
Cosmos 1697 Rocket 2.6 23:14:09 10° NNW 23:19:38 81° WNW 23:19:38 81° WNW
Cosmos 1809 Rocket 4.5 23:14:38 10° NNW 23:20:41 69° W 23:21:21 64° SW
Lacrosse 5 3.9 23:25:30 17° NE 23:25:30 17° NE 23:26:40 10° NE
Cosmos 1452 Rocket 4.1 23:20:04 10° NNW 23:24:59 50° W 23:24:59 50° W
SL-16 R/B 3.8 23:25:21 10° N 23:29:33 22° ENE 23:29:33 22° ENE
SPOT 1/Viking Rocket 4.4 23:30:09 41° W 23:30:09 41° W 23:34:59 10° NNW
Cosmos 2218 Rocket 4.5 23:26:51 10° NNW 23:32:46 50° W 23:33:41 46° WSW
Meteor 2-16 Rocket 4.4 23:32:07 10° N 23:38:10 80° WNW 23:38:10 80° WNW
ATLAS CENTAUR R/B 4.1 23:38:22 10° NNE 23:38:30 10° NNE 23:38:30 10° NNE
SL-19 R/B 4.5 23:35:25 10° N 23:40:12 60° NW 23:40:12 60° NW
H-2A R/B 3.5 23:48:48 37° NW 23:48:48 37° NW 23:51:42 10° NNW
